Regional Weather Roundup
Issued by NWS

Home | Current Version | Previous Version | Graphics & Text | Print | Product List | Glossary On
Versions: 1 2 3 4 5 6 7 8 9 10 11 12 13 14 15 16 17 18 19 20 21 22 23 24 25 26 27 28 29 30 31 32 33 34 35 36 37 38 39 40 41 42 43 44 45 46 47 48 49 50
000
ASUS43 KLOT 200108
RWRIL

ILLINOIS REGIONAL WEATHER ROUNDUP
NATIONAL WEATHER SERVICE CHICAGO/ROMEOVILLE IL
700 PM CST SUN NOV 19 2017

NOTE: "FAIR" INDICATES FEW OR NO CLOUDS BELOW 12,000 FEET WITH NO
SIGNIFICANT WEATHER AND/OR OBSTRUCTIONS TO VISIBILITY.

* THESE STATIONS ARE NOT UNDER NWS QUALITY CONTROL. THEY ALSO MAY NOT
  REPORT WEATHER SUCH AS PRECIPITATION OR FOG.

ILZ001-002-007-009-015-016-024-200200-
NORTHWEST ILLINOIS

CITY           SKY/WX    TMP DP  RH WIND       PRES   REMARKS
MOLINE         CLEAR     32  20  61 S6        30.08S WCI  26
STERLING*        N/A    N/A N/A N/A MISG        N/A
SAVANNA*       CLEAR     30  23  73 S7        30.07S WCI  24
$$

ILZ003-004-008-010-011-017-018-200200-
NORTH CENTRAL ILLINOIS

CITY           SKY/WX    TMP DP  RH WIND       PRES   REMARKS
ROCKFORD       CLEAR     28  19  69 SW5       30.07F WCI  23
FREEPORT*      CLEAR     28  20  72 SW10      30.06F WCI  18
ROCHELLE*      CLEAR     24  21  88 S7        30.07F WCI  16
DE KALB*       CLEAR     29  20  69 SW9       30.06F WCI  21
PERU*          CLEAR     28  20  70 SW8       30.10F WCI  20
$$

ILZ005-006-012>014-019>023-200200-
NORTHEAST ILLINOIS

CITY           SKY/WX    TMP DP  RH WIND       PRES   REMARKS
CHICAGO-OHARE  CLEAR     31  20  63 W8        30.06S WCI  23
CHICAGO-MIDWAY CLEAR     31  21  66 SW9       30.08R WCI  23
AURORA         CLEAR     28  21  75 SW7       30.08S WCI  21
LANSING*       CLEAR     30  23  75 W10       30.10R WCI  21
JOLIET*        CLEAR     31  23  72 SW3       30.10S
WAUKEGAN       CLEAR     30  19  63 VRB7      30.02F WCI  23
DUPAGE AIRPORT CLEAR     28  22  78 SW7       30.06S WCI  21
KANKAKEE*      CLEAR     29  23  78 W7        30.12S WCI  22
WHEELING       CLEAR     32  20  61 SW6       30.07S WCI  26
MORRIS*        CLEAR     28  22  77 SW7       30.10S WCI  21
ROMEOVILLE*    CLEAR     30  22  73 W8        30.09S WCI  22
NORTHERLY ISL    N/A     33  19  56 W8          N/A  WCI  26
$$

LMZ740>746-200200-
SOUTHERN LAKE MICHIGAN

STATION/POSITION SKY/WX   TEMP    WIND        PRES    VSBY  WAVE
                          AIR SEA DIR/SP/G                  HT/PER
                          (F)     (DEG/KT/KT) (MB)    (MI)  (FT/S)
SOUTHERN BUOY              35 49  310/ 17/ 25 1016.7          4/ 5
HARRISON CRIB              34     260/ 13/ 15   N/A
BURNHAM HARBOR             33     240/  6/ 11   N/A
CALUMET HARBOR             32     220/  6/ 11 1017.9R
BURNS HARBOR               35     260/ 18/ 23 1018.6R
MICHIGAN CITY              35     250/ 24/ 27   N/A
$$

ILZ025>027-034>036-040-047-049-050-058-095>099-200200-
WEST-CENTRAL ILLINOIS

CITY           SKY/WX    TMP DP  RH WIND       PRES   REMARKS
QUINCY         CLEAR     33  24  69 S8        30.14S WCI  26
GALESBURG*     CLEAR     29  24  79 S7        30.12S WCI  22
MACOMB*        CLEAR     31  25  79 S7        30.15S WCI  24
JACKSONVILLE*  CLEAR     32  20  61 S5        30.16F WCI  28
PITTSFIELD*    CLEAR     34  23  63 S6        30.16F WCI  29
$$

ILZ028>032-037-038-041>044-048-051>054-059>061-200200-
CENTRAL ILLINOIS

CITY           SKY/WX    TMP DP  RH WIND       PRES   REMARKS
PONTIAC        CLEAR     29  26  88 SW7       30.13F WCI  22
BLOOMINGTON    CLEAR     28  23  81 SW8       30.14R WCI  20
DECATUR        CLEAR     30  21  69 SW5       30.17R WCI  25
PEORIA         CLEAR     28  20  71 SW7       30.14S WCI  21
LACON*         CLEAR     29  20  68 SW5       30.11F WCI  24
LINCOLN*       CLEAR     31  24  75 CALM      30.16S
SPRINGFIELD    CLEAR     31  22  69 SW3       30.17S
TAYLORVILLE    CLEAR     30  24  76 SW5       30.18S WCI  25
$$

ILZ033-039-045-046-055>057-062-063-200200-
EAST-CENTRAL ILLINOIS

CITY           SKY/WX    TMP DP  RH WIND       PRES   REMARKS
CHAMPAIGN      CLEAR     30  24  78 W7        30.15S WCI  23
DANVILLE*      CLEAR     30  22  73 W7        30.13R WCI  23
RANTOUL*       CLEAR     32  27  80 W6        30.14S WCI  26
MATTOON        CLEAR     31  23  72 W6        30.16R WCI  25
PARIS*         CLEAR     30  26  83 W8        30.17S WCI  22
$$

ILZ079-100>102-200200-
SOUTHWEST ILLINOIS

CITY           SKY/WX    TMP DP  RH WIND       PRES   REMARKS
ALTON          CLEAR     32  25  74 SW6       30.20R WCI  26
BELLEVILLE     CLEAR     31  20  65 CALM      30.20R
CAHOKIA*       CLEAR     31  21  66 CALM      30.21R
SPARTA*        CLEAR     36  20  53 CALM      30.23R
$$

ILZ064>066-069>071-074>076-080>082-084>086-088>090-092>094-200200-
SOUTH-CENTRAL ILLINOIS

CITY           SKY/WX    TMP DP  RH WIND       PRES   REMARKS
CARBONDALE     CLEAR     29  22  75 CALM      30.22R
CAIRO*         CLEAR     32  25  75 CALM      30.22F
EFFINGHAM*     CLEAR     29  24  81 SW3       30.20F
MARION         CLEAR     30  25  80 NW5       30.23R WCI  25
MT. VERNON     CLEAR     27  24  89 CALM      30.21R
CENTRALIA*     CLEAR     31  23  73 CALM      30.20S
SALEM*         CLEAR     32  23  69 W3        30.20S
METROPOLIS*    CLEAR     33  26  75 CALM      30.22F
$$

ILZ067-068-072-073-078-083-087-091-200200-
SOUTHEAST ILLINOIS

CITY           SKY/WX    TMP DP  RH WIND       PRES   REMARKS
LAWRENCEVILLE  CLEAR     33  22  63 W6        30.20R WCI  28
FLORA*         CLEAR     34  23  63 W5        30.17S WCI  30
FAIRFIELD*     CLEAR     29  27  89 CALM      30.20S
HARRISBURG*    CLEAR     32  26  79 CALM      30.22S
ROBINSON*      CLEAR     30  22  72 W3        30.20R
CARMI*         CLEAR     32  22  65 SW3       30.21R
$$

ABBREVIATIONS USED IN REMARKS
   TC - TEMPERATURE IN CELSIUS
  WCI - WIND CHILL INDEX
   HX - HEAT INDEX
  VSB - VISIBILITY
$$




USA.gov is the U.S. government's official web portal to all federal, state and local government web resources and services.